Wind_Speed
19 19 20 20 20 20 18 17 17 17 16 16 17 18 18 19 19 20 20 19 19 20 20 20 20 20 19 19 19 19 18 18 17 17 16 16 16 15 15 15 15 15 15 15 14 14 13 12 12
19 20 20 20 20 20 19 18 19 18 18 17 18 18 19 19 19 20 20 20 20 21 21 21 21 21 21 20 20 20 20 19 19 19 18 18 17 17 16 16 15 16 16 16 16 16 15 14 14
19 20 21 20 20 20 19 20 20 20 19 19 19 20 20 20 20 20 20 21 21 21 22 22 22 22 21 22 21 21 21 21 21 20 20 20 19 18 18 17 17 17 17 17 17 17 17 16 16
19 20 21 21 20 20 20 21 21 21 21 21 21 21 21 21 21 21 21 21 21 22 22 23 23 24 23 23 23 22 23 22 22 22 22 22 21 21 20 19 19 18 18 18 18 17 17 17 17
20 20 21 21 21 21 22 22 23 22 22 22 23 23 23 23 23 23 23 22 22 22 22 23 24 25 25 25 25 24 24 23 23 23 22 23 22 22 21 21 20 20 19 19 19 19 19 19 19
20 21 22 22 21 22 23 23 24 24 24 24 25 25 25 25 25 25 24 24 24 23 23 23 24 25 25 25 26 26 26 25 24 24 24 24 24 23 22 22 22 22 22 21 21 21 20 20 20
21 21 21 21 21 22 23 23 24 25 25 25 26 27 27 27 27 26 26 26 25 25 25 25 25 26 26 26 26 26 27 26 26 26 26 26 25 25 24 24 23 23 23 24 24 23 23 23 22
21 22 22 21 22 23 23 24 25 26 26 27 27 28 28 29 29 28 28 27 27 27 26 26 26 27 27 27 27 28 28 28 28 28 28 28 27 27 26 25 25 25 25 25 25 25 25 25 24
22 23 22 21 22 23 23 24 25 26 26 26 27 28 29 29 29 29 29 28 28 28 28 28 28 28 28 29 29 29 29 30 29 29 29 29 29 28 28 27 27 27 26 26 27 26 27 27 27
23 24 23 23 23 24 24 25 25 26 26 26 27 27 28 29 29 29 30 29 30 30 29 30 30 30 30 30 30 30 31 31 31 31 31 31 31 30 30 29 29 29 28 28 28 28 29 29 29
24 24 24 24 24 25 26 26 26 27 27 27 27 28 27 28 29 30 30 31 30 31 31 31 31 31 31 31 31 31 32 33 33 33 33 33 33 33 32 32 31 31 31 30 30 30 30 30 30
25 25 25 25 25 26 27 27 27 28 28 28 27 28 27 28 29 29 30 31 31 31 32 32 32 33 33 34 33 33 33 34 34 34 34 34 35 35 35 34 34 33 33 33 32 32 32 32 32
25 25 25 25 25 26 27 28 28 28 29 28 28 28 28 28 28 29 30 31 31 32 33 33 33 33 34 34 34 34 35 35 35 35 35 35 36 36 36 36 36 35 35 34 34 34 34 34 33
25 25 25 25 26 26 26 27 27 27 28 28 28 28 28 28 28 29 30 31 32 32 33 34 35 35 35 35 36 36 36 36 36 37 37 37 37 37 37 37 37 36 36 36 36 36 36 36 35
25 26 25 24 24 25 26 27 27 28 28 28 28 28 28 28 29 29 30 31 31 32 33 33 34 35 36 36 36 37 37 37 37 38 38 39 38 38 39 39 39 39 38 38 38 38 38 38 37
26 26 26 25 25 26 26 26 27 28 28 28 28 28 28 29 30 30 31 32 32 33 34 35 36 35 36 37 37 38 39 39 39 38 38 38 39 39 40 41 41 41 41 40 40 40 39 39 39
26 27 26 26 26 26 27 27 27 28 28 29 29 29 29 29 30 31 32 32 33 34 35 35 37 37 37 38 38 39 39 40 40 40 40 39 40 40 41 41 42 43 42 42 41 41 41 41 40
27 27 27 27 27 27 28 28 28 28 28 29 29 30 30 30 30 31 32 33 34 34 35 36 37 38 38 38 38 38 39 39 40 41 41 40 41 41 42 42 42 43 43 43 42 42 42 42 42
28 28 28 27 27 28 28 28 28 28 28 29 30 30 31 31 31 32 33 33 34 35 35 36 37 37 37 37 38 38 38 39 40 41 42 41 41 42 42 43 43 42 43 43 44 44 44 43 43
29 29 28 28 28 29 29 29 29 28 28 29 30 31 31 32 32 33 34 35 35 36 36 36 36 37 37 37 38 39 39 39 40 40 41 42 42 42 42 43 43 43 43 43 44 45 45 46 45
29 29 30 30 30 30 31 30 29 29 29 29 30 30 31 31 32 33 34 35 35 35 35 35 35 36 38 38 39 40 40 40 40 41 42 42 43 43 43 43 44 45 45 44 44 44 45 46 47
30 30 30 30 30 30 31 32 29 29 29 29 29 29 30 30 31 32 33 33 34 34 34 34 36 36 38 39 40 40 40 41 41 41 41 42 42 43 43 44 45 46 46 45 45 45 45 46 47
30 30 31 30 30 30 29 31 28 27 29 28 29 29 30 30 31 32 32 32 33 33 33 34 35 36 37 39 40 40 40 41 41 41 41 42 43 43 44 45 46 45 46 46 46 46 47 48 48
29 30 30 29 29 29 28 29 28 27 27 28 29 29 29 30 30 31 31 32 33 34 34 34 34 36 37 38 39 40 40 40 41 41 42 42 43 44 45 45 45 45 45 46 47 48 48 49 49
28 28 29 30 29 29 28 29 28 27 27 27 28 28 29 29 30 30 31 32 33 34 34 34 35 36 36 37 37 39 40 41 41 42 42 43 44 45 45 45 45 46 46 47 47 48 49 48 48
27 28 29 30 31 30 29 29 28 27 28 27 27 28 29 29 29 30 31 33 35 35 35 35 36 37 37 37 38 38 39 40 41 42 43 44 44 45 45 45 46 47 47 48 47 47 47 47 47
27 28 28 30 31 32 31 29 28 27 27 26 26 27 28 29 30 31 32 33 35 36 37 37 37 37 37 37 38 39 39 40 40 41 42 43 44 45 46 47 46 47 47 47 47 46 46 47 47
28 28 28 29 30 31 31 29 28 26 27 26 26 27 28 30 31 32 32 33 35 36 36 37 37 37 38 38 39 39 39 40 40 41 42 42 42 43 44 45 46 46 46 47 47 47 47 47 47
29 29 30 31 32 31 32 30 29 28 28 28 28 28 29 31 32 32 33 33 34 35 35 36 37 37 37 38 39 39 40 40 41 41 42 42 43 43 43 44 44 44 45 46 46 46 46 46 47
28 29 30 31 31 32 32 31 29 29 28 28 29 29 30 31 32 32 33 33 33 34 35 35 36 37 37 37 37 38 39 40 40 41 41 42 42 42 43 43 44 44 44 45 45 45 46 46 47
Wind_Direction
251 250 251 252 253 253 252 252 253 253 254 254 254 252 250 249 248 249 249 249 249 249 247 247 246 246 245 242 240 238 239 240 240 241 241 244 245 243 240 238 238 238 238 239 240 242 244 244 245
250 249 251 251 252 253 253 252 253 253 253 253 253 252 252 252 251 251 251 250 250 249 249 247 244 244 244 243 242 240 240 241 242 242 243 244 246 245 244 241 240 239 238 240 241 243 244 245 245
250 250 251 252 252 254 254 253 253 254 254 254 254 253 253 253 252 252 252 251 250 249 248 246 244 243 243 242 242 243 243 243 243 244 244 245 246 248 247 244 241 241 242 244 245 245 244 244 245
252 252 253 254 255 256 255 255 255 256 256 257 257 257 256 255 254 253 253 252 251 249 247 245 244 244 244 243 243 245 245 245 245 244 245 246 246 247 249 249 245 244 244 244 246 246 246 246 247
254 254 255 256 257 258 257 257 258 258 259 259 259 259 258 257 255 254 253 252 252 250 247 246 245 244 244 243 244 245 245 245 245 244 245 246 247 247 247 249 248 247 245 245 246 246 247 248 249
257 255 257 258 259 259 259 259 260 260 260 261 261 260 259 258 257 254 253 252 252 250 248 247 246 245 245 243 243 244 244 244 244 245 245 245 246 247 247 247 250 249 248 248 247 248 248 249 250
258 259 260 261 261 260 260 261 260 260 260 261 262 261 260 259 258 255 253 252 251 250 249 247 246 245 245 244 245 246 245 245 245 246 246 246 247 248 248 249 250 252 251 251 250 250 251 252 253
260 261 262 263 263 262 262 262 261 261 261 261 262 262 261 259 258 256 253 250 250 250 249 248 248 249 248 246 247 247 247 247 247 247 248 249 249 250 250 250 251 252 253 252 253 252 253 254 255
262 263 264 266 266 265 264 262 262 262 263 262 262 262 262 259 258 256 253 250 249 248 249 250 249 249 249 249 249 249 249 249 249 248 249 249 249 249 249 250 251 253 255 255 254 253 254 256 257
263 265 266 266 265 265 264 262 262 263 264 264 263 262 262 260 257 255 253 250 249 248 247 249 250 250 250 251 251 251 251 252 251 250 249 249 249 249 250 250 251 253 255 256 256 256 257 257 258
264 266 266 265 265 264 264 263 263 264 265 265 265 264 262 260 258 257 254 252 249 248 247 248 251 251 251 251 251 251 251 251 252 251 252 251 250 250 251 251 251 253 255 256 257 257 258 258 258
265 265 265 266 266 265 265 265 264 265 265 265 265 263 261 261 259 257 255 253 250 248 248 248 250 251 253 253 253 252 253 253 253 252 252 252 252 251 252 253 252 253 255 256 257 257 258 259 259
266 266 266 266 267 267 266 266 266 265 265 265 264 263 262 260 259 256 255 254 251 250 249 250 251 253 253 252 252 253 254 254 254 254 253 253 252 252 253 254 254 254 256 257 257 257 258 259 260
267 267 268 268 268 267 267 267 266 265 264 264 264 264 263 260 258 257 256 255 253 252 252 251 251 253 254 253 255 255 254 255 255 255 255 254 254 253 253 254 255 255 257 257 258 258 258 259 260
267 268 269 270 270 268 267 267 267 265 265 265 264 264 263 261 259 258 257 256 255 255 254 253 254 255 256 255 255 256 256 256 257 257 256 254 253 254 254 254 255 255 256 257 258 259 260 261 261
268 268 269 270 271 270 269 268 268 267 267 266 265 265 265 264 262 259 259 258 258 257 256 254 255 257 258 257 258 258 258 257 256 256 255 254 254 255 256 255 255 256 257 258 258 259 260 261 261
268 269 269 270 270 270 270 269 269 268 267 266 266 265 265 265 263 260 260 260 260 259 258 258 257 257 258 259 261 259 258 257 256 256 255 255 255 256 256 256 257 256 257 258 258 259 260 261 261
269 269 269 270 271 271 271 270 270 269 267 266 267 266 265 265 264 262 261 260 260 261 260 260 259 258 259 260 260 260 259 259 258 257 256 257 258 258 258 258 259 258 257 258 259 260 260 261 261
268 269 270 270 271 271 272 273 272 270 268 267 267 267 267 267 265 263 262 261 261 262 261 260 259 259 259 259 259 260 260 260 260 259 258 259 259 259 258 258 259 258 257 258 260 260 261 262 262
267 268 269 269 270 271 272 273 272 270 269 268 268 267 268 266 265 263 263 262 262 262 261 260 259 258 258 259 261 262 261 261 261 261 260 261 260 260 259 257 258 258 258 259 261 261 261 262 263
266 267 268 270 270 270 273 272 271 269 269 268 269 269 269 268 266 264 263 263 262 262 260 259 259 258 258 259 262 263 263 263 263 263 262 261 261 261 260 260 258 258 259 260 261 262 262 262 263
266 266 268 270 270 271 273 274 270 269 268 268 270 270 270 269 266 264 263 262 261 261 260 259 259 259 259 260 261 263 264 264 264 264 264 263 262 262 261 260 261 261 261 261 262 263 264 264 265
268 267 268 269 270 271 273 274 273 270 269 269 271 271 270 269 267 264 263 262 261 260 259 260 260 261 262 262 263 264 264 265 264 264 263 263 263 263 263 262 262 262 262 263 263 263 265 266 266
269 267 266 268 269 270 273 275 275 272 273 272 272 272 272 270 266 264 263 263 262 260 260 260 262 262 263 264 265 264 264 264 264 264 264 263 264 264 265 265 263 263 264 264 264 265 265 265 266
268 267 267 269 270 271 273 274 275 274 273 273 273 273 272 271 268 265 264 263 262 261 262 262 262 262 264 265 265 265 265 265 265 264 264 264 265 265 265 265 264 264 264 265 265 265 266 266 266
268 266 268 271 272 273 274 274 274 274 274 274 274 273 273 271 269 266 265 265 263 263 263 263 263 263 264 265 266 265 266 266 265 265 265 265 265 264 265 266 266 266 266 266 265 265 265 266 267
268 267 268 271 273 274 274 275 272 273 275 276 276 276 273 271 270 268 267 266 265 266 265 264 264 264 265 266 266 266 266 267 266 266 266 266 266 265 264 266 267 267 266 265 265 265 266 267 268
269 270 270 271 275 277 277 275 274 274 277 278 279 277 276 274 274 273 271 270 268 269 266 265 266 267 267 269 268 267 267 267 267 266 267 266 266 266 266 267 267 267 266 266 266 266 267 268 268
269 270 271 272 273 275 277 278 276 278 278 279 280 280 279 278 278 277 274 274 271 271 269 268 268 268 268 269 269 269 269 269 269 268 267 266 265 266 266 267 267 267 267 266 267 268 269 269 269
268 270 270 272 273 274 276 278 277 279 279 280 282 283 282 280 279 278 276 275 273 271 269 269 268 268 268 270 270 269 270 270 271 270 268 267 266 266 267 268 267 267 267 267 267 268 269 269 269
Height
5820 5820 5821 5822 5823 5823 5824 5825 5825 5825 5826 5826 5827 5827 5828 5830 5831 5833 5833 5832 5832 5833 5834 5835 5836 5837 5838 5839 5840 5841 5842 5842 5843 5844 5845 5845 5846 5846 5847 5847 5848 5848 5849 5850 5850 5851 5851 5852 5852
5816 5817 5817 5818 5818 5819 5820 5821 5821 5822 5822 5822 5823 5823 5824 5825 5826 5826 5827 5828 5828 5829 5830 5831 5832 5833 5834 5835 5836 5837 5838 5839 5840 5841 5842 5843 5843 5843 5844 5844 5845 5845 5846 5847 5847 5848 5849 5849 5850
5812 5812 5813 5813 5814 5815 5816 5816 5817 5817 5817 5818 5818 5819 5820 5821 5821 5822 5823 5823 5824 5825 5826 5827 5828 5829 5830 5832 5833 5834 5835 5836 5837 5838 5838 5839 5840 5840 5841 5841 5842 5842 5843 5844 5844 5845 5845 5846 5847
5808 5809 5809 5810 5810 5811 5811 5812 5812 5812 5813 5813 5814 5814 5815 5816 5817 5818 5818 5819 5820 5820 5821 5822 5824 5825 5826 5827 5829 5830 5831 5832 5833 5833 5834 5835 5836 5837 5837 5838 5838 5839 5840 5840 5841 5841 5842 5843 5844
5803 5804 5805 5805 5805 5806 5806 5806 5807 5807 5808 5808 5809 5809 5810 5811 5811 5812 5813 5814 5815 5816 5817 5818 5819 5820 5821 5823 5824 5825 5826 5827 5828 5829 5830 5831 5832 5833 5833 5834 5835 5835 5836 5836 5837 5838 5839 5839 5840
5799 5799 5800 5800 5801 5801 5801 5801 5801 5802 5802 5803 5803 5804 5805 5805 5806 5807 5808 5809 5810 5811 5812 5813 5814 5815 5816 5818 5819 5820 5821 5822 5823 5824 5825 5826 5827 5828 5829 5830 5830 5831 5832 5833 5833 5834 5835 5835 5836
5795 5795 5794 5795 5795 5795 5796 5796 5796 5796 5797 5797 5797 5798 5799 5799 5800 5801 5802 5803 5804 5805 5806 5808 5809 5810 5811 5812 5813 5815 5816 5817 5818 5818 5819 5820 5822 5823 5824 5825 5826 5826 5827 5828 5829 5830 5831 5831 5832
5789 5790 5789 5789 5789 5790 5790 5790 5790 5790 5791 5791 5791 5792 5793 5793 5794 5795 5796 5797 5799 5800 5801 5802 5803 5804 5805 5807 5807 5809 5810 5811 5812 5813 5813 5815 5816 5817 5818 5820 5821 5821 5822 5823 5824 5825 5826 5827 5827
5783 5784 5784 5784 5784 5784 5784 5784 5784 5784 5784 5785 5785 5785 5786 5786 5787 5788 5790 5791 5792 5793 5795 5796 5797 5798 5800 5801 5802 5802 5803 5805 5805 5806 5807 5809 5810 5811 5813 5814 5815 5816 5817 5818 5819 5820 5820 5821 5822
5777 5778 5778 5778 5778 5778 5777 5777 5778 5778 5778 5778 5778 5779 5778 5779 5780 5781 5782 5784 5785 5787 5788 5789 5790 5792 5793 5794 5795 5796 5797 5798 5799 5800 5801 5802 5804 5805 5806 5808 5809 5810 5811 5812 5813 5813 5814 5815 5816
5771 5772 5772 5771 5771 5771 5771 5771 5771 5771 5771 5772 5772 5772 5772 5773 5773 5774 5775 5776 5778 5779 5781 5782 5783 5785 5786 5787 5788 5789 5790 5791 5792 5793 5795 5796 5797 5798 5800 5801 5802 5804 5805 5806 5807 5807 5808 5808 5809
5765 5765 5765 5765 5765 5764 5764 5764 5764 5764 5765 5764 5764 5764 5765 5765 5766 5767 5768 5769 5770 5772 5773 5775 5776 5777 5779 5780 5781 5782 5782 5784 5785 5786 5787 5788 5790 5791 5792 5794 5795 5797 5798 5799 5800 5801 5801 5802 5802
5758 5758 5758 5758 5758 5757 5757 5757 5757 5757 5757 5757 5757 5757 5758 5758 5759 5759 5760 5761 5762 5764 5765 5767 5768 5769 5771 5772 5773 5774 5775 5776 5777 5778 5779 5780 5782 5783 5785 5786 5787 5789 5790 5791 5792 5793 5794 5794 5795
5752 5752 5752 5751 5751 5750 5750 5750 5750 5750 5749 5750 5750 5750 5750 5751 5751 5752 5753 5754 5755 5756 5757 5759 5760 5761 5763 5764 5765 5766 5766 5767 5768 5770 5771 5772 5773 5775 5776 5778 5779 5781 5782 5783 5784 5785 5786 5787 5787
5745 5745 5745 5745 5744 5743 5743 5743 5743 5743 5742 5743 5743 5743 5743 5743 5744 5744 5745 5746 5747 5748 5749 5750 5752 5753 5754 5755 5756 5757 5758 5759 5760 5761 5762 5763 5765 5766 5768 5769 5771 5772 5773 5775 5776 5777 5777 5778 5779
5738 5738 5738 5739 5737 5736 5737 5737 5737 5735 5735 5735 5735 5735 5736 5736 5736 5736 5737 5738 5739 5740 5741 5742 5743 5744 5745 5746 5747 5748 5749 5749 5750 5751 5753 5754 5755 5757 5758 5760 5761 5763 5764 5765 5767 5768 5768 5769 5770
5730 5731 5731 5731 5730 5729 5729 5729 5729 5728 5728 5727 5727 5727 5728 5728 5728 5729 5729 5730 5731 5732 5733 5733 5734 5735 5736 5737 5737 5738 5738 5739 5740 5741 5743 5744 5746 5747 5749 5750 5752 5753 5754 5756 5757 5758 5759 5760 5760
5724 5724 5723 5723 5723 5722 5721 5721 5721 5721 5720 5720 5720 5719 5719 5719 5720 5720 5721 5722 5722 5723 5724 5724 5725 5726 5727 5728 5728 5728 5728 5729 5730 5731 5733 5734 5735 5737 5738 5740 5741 5743 5744 5746 5747 5748 5749 5750 5750
5716 5716 5716 5716 5715 5714 5713 5713 5713 5713 5712 5712 5711 5711 5711 5711 5711 5712 5712 5713 5713 5714 5715 5715 5716 5717 5717 5718 5719 5719 5719 5720 5720 5721 5722 5723 5725 5726 5728 5729 5731 5733 5734 5735 5736 5737 5738 5739 5740
5708 5708 5708 5708 5707 5706 5705 5705 5705 5705 5704 5704 5703 5703 5703 5702 5703 5703 5703 5703 5704 5705 5705 5706 5707 5707 5708 5709 5710 5710 5710 5710 5710 5711 5712 5713 5714 5716 5717 5719 5721 5722 5723 5724 5726 5726 5727 5728 5729
5700 5700 5700 5700 5699 5698 5697 5697 5698 5697 5696 5695 5695 5694 5694 5694 5694 5694 5694 5694 5694 5695 5696 5697 5697 5698 5699 5700 5700 5700 5700 5700 5701 5701 5702 5703 5704 5705 5707 5708 5710 5711 5712 5714 5715 5715 5716 5717 5717
5692 5693 5692 5691 5690 5690 5690 5687 5690 5688 5688 5687 5686 5685 5685 5684 5684 5684 5684 5685 5685 5686 5687 5688 5688 5689 5689 5690 5690 5690 5690 5691 5691 5692 5692 5693 5694 5695 5696 5697 5699 5700 5701 5702 5703 5704 5704 5705 5706
5684 5684 5683 5683 5682 5681 5681 5679 5681 5680 5679 5679 5678 5677 5676 5675 5675 5675 5675 5676 5676 5677 5678 5679 5679 5679 5680 5680 5680 5680 5680 5681 5681 5682 5682 5683 5684 5685 5685 5686 5688 5688 5690 5691 5691 5692 5693 5693 5693
5676 5675 5675 5674 5673 5673 5673 5671 5672 5672 5671 5670 5669 5668 5667 5666 5666 5666 5667 5667 5667 5668 5669 5669 5670 5670 5670 5670 5670 5670 5670 5671 5671 5671 5672 5673 5673 5674 5675 5675 5676 5677 5678 5679 5679 5680 5681 5681 5681
5668 5668 5667 5665 5664 5665 5665 5663 5665 5664 5663 5662 5661 5660 5658 5658 5657 5658 5658 5658 5658 5659 5659 5660 5660 5660 5661 5660 5660 5660 5660 5660 5660 5661 5661 5662 5662 5663 5663 5664 5665 5665 5666 5666 5667 5667 5668 5668 5668
5660 5660 5659 5658 5657 5657 5657 5655 5657 5656 5655 5653 5652 5651 5650 5649 5649 5649 5649 5649 5649 5650 5650 5650 5650 5650 5651 5651 5650 5650 5649 5649 5649 5650 5650 5650 5651 5651 5652 5652 5653 5653 5654 5654 5654 5654 5655 5655 5655
5651 5651 5651 5650 5649 5648 5647 5648 5649 5648 5647 5646 5644 5643 5642 5641 5641 5640 5640 5640 5640 5640 5640 5640 5640 5640 5640 5640 5640 5640 5639 5639 5638 5638 5639 5639 5639 5640 5640 5640 5641 5641 5641 5641 5641 5642 5642 5642 5642
5644 5644 5643 5641 5640 5639 5639 5640 5641 5640 5639 5638 5637 5635 5634 5633 5633 5632 5631 5631 5631 5630 5630 5630 5630 5630 5630 5630 5629 5629 5629 5628 5628 5627 5627 5628 5628 5628 5629 5629 5629 5629 5629 5629 5629 5629 5629 5630 5630
5636 5636 5635 5633 5633 5632 5630 5634 5633 5632 5631 5630 5629 5627 5626 5625 5624 5623 5622 5621 5621 5621 5620 5620 5620 5620 5619 5619 5619 5618 5617 5617 5616 5616 5616 5616 5616 5616 5617 5616 5616 5616 5616 5616 5616 5616 5617 5617 5617
5628 5628 5627 5627 5625 5624 5623 5627 5624 5623 5622 5621 5620 5618 5617 5616 5615 5614 5613 5612 5612 5611 5610 5610 5609 5609 5609 5608 5608 5607 5607 5606 5605 5604 5604 5604 5604 5604 5604 5604 5604 5604 5604 5604 5604 5604 5604 5604 5604